CGWXV CYXU-ZZZZ

Flight info

Callsign CGWXV
Flight time N/A
Altitude 3000
Route VFR TRANS NORTH THORNDALE
Aircraft

Departure

Time 2026-04-20 23:19
Airport London International Airport (CYXU)

Arrival

Time N/A
Airport ZZZZ
Time Latitude Longitude Altitude Speed Heading
2026-04-20 23:09 43.03240 -81.15218 905 ft 0 kts 49°
2026-04-20 23:10 43.03246 -81.15208 905 ft 4 kts 46°
2026-04-20 23:11 43.03255 -81.15153 905 ft 9 kts 138°
2026-04-20 23:11 43.03193 -81.15078 905 ft 15 kts 139°
2026-04-20 23:11 43.03101 -81.14967 904 ft 19 kts 142°
2026-04-20 23:11 43.03001 -81.14849 903 ft 17 kts 139°
2026-04-20 23:12 43.02913 -81.14741 903 ft 16 kts 138°
2026-04-20 23:12 43.02823 -81.14631 904 ft 17 kts 135°
2026-04-20 23:12 43.02726 -81.14520 905 ft 18 kts 136°
2026-04-20 23:12 43.02626 -81.14397 906 ft 19 kts 142°
2026-04-20 23:13 43.02524 -81.14272 907 ft 19 kts 135°
2026-04-20 23:13 43.02417 -81.14146 909 ft 20 kts 139°
2026-04-20 23:13 43.02323 -81.14033 910 ft 12 kts 133°
2026-04-20 23:13 43.02311 -81.13978 910 ft 0 kts 83°
2026-04-20 23:14 43.02311 -81.13977 910 ft 0 kts 83°
2026-04-20 23:15 43.02327 -81.13946 911 ft 7 kts 47°
2026-04-20 23:15 43.02347 -81.13914 911 ft 0 kts 62°
2026-04-20 23:17 43.02361 -81.13892 911 ft 6 kts 48°
2026-04-20 23:17 43.02414 -81.13841 911 ft 11 kts 355°
2026-04-20 23:18 43.02468 -81.13894 911 ft 6 kts 321°
2026-04-20 23:18 43.02475 -81.13901 911 ft 0 kts 321°
2026-04-20 23:18 43.02479 -81.13905 911 ft 6 kts 320°
2026-04-20 23:18 43.02668 -81.14129 917 ft 61 kts 325°
2026-04-20 23:19 43.02993 -81.14507 1176 ft 59 kts 324°
2026-04-20 23:19 43.03295 -81.14876 1456 ft 54 kts 322°
2026-04-20 23:19 43.03596 -81.15237 1664 ft 62 kts 312°
2026-04-20 23:19 43.03900 -81.15650 1944 ft 62 kts 324°
2026-04-20 23:20 43.04207 -81.16076 2213 ft 62 kts 306°
2026-04-20 23:20 43.04515 -81.16454 2499 ft 60 kts 337°
2026-04-20 23:20 43.04941 -81.16412 2732 ft 71 kts 21°
2026-04-20 23:20 43.05218 -81.15857 3006 ft 77 kts 70°
2026-04-20 23:21 43.05495 -81.15331 3254 ft 68 kts 15°
2026-04-20 23:21 43.05947 -81.15254 3491 ft 66 kts 355°
2026-04-20 23:21 43.06497 -81.15206 3474 ft 85 kts 360°
2026-04-20 23:21 43.07106 -81.15120 3515 ft 90 kts
2026-04-20 23:22 43.07744 -81.15016 3524 ft 94 kts
2026-04-20 23:22 43.08416 -81.14914 3516 ft 98 kts
2026-04-20 23:22 43.09094 -81.14838 3553 ft 97 kts 359°
2026-04-20 23:22 43.09768 -81.14790 3538 ft 100 kts 358°
2026-04-20 23:23 43.10480 -81.14733 3501 ft 103 kts
2026-04-20 23:23 43.11198 -81.14653 3486 ft 103 kts 360°
2026-04-20 23:23 43.11921 -81.14591 3461 ft 104 kts
2026-04-20 23:23 43.12585 -81.14188 3460 ft 109 kts 37°
2026-04-20 23:24 43.12946 -81.13231 3407 ft 117 kts 76°
2026-04-20 23:24 43.13051 -81.12192 3518 ft 109 kts 78°
2026-04-20 23:24 43.13133 -81.11149 3522 ft 113 kts 79°
2026-04-20 23:24 43.13198 -81.10068 3547 ft 113 kts 82°
2026-04-20 23:25 43.13249 -81.08995 3566 ft 114 kts 83°
2026-04-20 23:25 43.13283 -81.07910 3563 ft 116 kts 83°
2026-04-20 23:25 43.13339 -81.06792 3524 ft 118 kts 83°
2026-04-20 23:25 43.13368 -81.05660 3502 ft 119 kts 86°
2026-04-20 23:26 43.13330 -81.04527 3492 ft 119 kts 93°
2026-04-20 23:26 43.13270 -81.03402 3457 ft 118 kts 80°
2026-04-20 23:26 43.13392 -81.02297 3445 ft 116 kts 76°
2026-04-20 23:26 43.13512 -81.01212 3439 ft 116 kts 78°
2026-04-20 23:27 43.13627 -81.00108 3424 ft 115 kts 72°
2026-04-20 23:27 43.13830 -80.99059 3417 ft 114 kts 73°
2026-04-20 23:27 43.13941 -80.97980 3395 ft 116 kts 81°
2026-04-20 23:27 43.13994 -80.96891 3395 ft 115 kts 80°
2026-04-20 23:28 43.14065 -80.95785 3380 ft 116 kts 81°
2026-04-20 23:28 43.14091 -80.94709 3420 ft 113 kts 86°
2026-04-20 23:28 43.14054 -80.93613 3422 ft 115 kts 90°
2026-04-20 23:28 43.13978 -80.92516 3430 ft 115 kts 92°
2026-04-20 23:29 43.13879 -80.91441 3455 ft 114 kts 95°
2026-04-20 23:29 43.13732 -80.90358 3445 ft 117 kts 100°
2026-04-20 23:29 43.13511 -80.89282 3467 ft 115 kts 102°
2026-04-20 23:29 43.13367 -80.88203 3465 ft 116 kts 95°
2026-04-20 23:30 43.13251 -80.87108 3486 ft 115 kts 96°
2026-04-20 23:30 43.13085 -80.86036 3496 ft 116 kts 103°
2026-04-20 23:30 43.12888 -80.84970 3504 ft 115 kts 96°
2026-04-20 23:30 43.12826 -80.83866 3500 ft 115 kts 88°
2026-04-20 23:31 43.12709 -80.82785 3503 ft 117 kts 101°
2026-04-20 23:31 43.12500 -80.81702 3486 ft 114 kts 103°
2026-04-20 23:31 43.12290 -80.80654 3237 ft 117 kts 102°
2026-04-20 23:31 43.12081 -80.79571 2952 ft 118 kts 103°
2026-04-20 23:32 43.11990 -80.78492 2687 ft 109 kts 72°
2026-04-20 23:32 43.12368 -80.77713 2489 ft 89 kts 24°
2026-04-20 23:32 43.12923 -80.77592 2400 ft 79 kts 345°
2026-04-20 23:32 43.13312 -80.78087 2237 ft 81 kts 296°
2026-04-20 23:33 43.13412 -80.78859 1991 ft 82 kts 280°
2026-04-20 23:33 43.13418 -80.79551 1929 ft 68 kts 255°
2026-04-20 23:33 43.13071 -80.79979 1891 ft 73 kts 213°
2026-04-20 23:33 43.12555 -80.80232 1935 ft 82 kts 204°
2026-04-20 23:34 43.12018 -80.80519 1945 ft 84 kts 208°
2026-04-20 23:34 43.11466 -80.80679 1971 ft 83 kts 172°
2026-04-20 23:34 43.11054 -80.80159 1973 ft 84 kts 108°
2026-04-20 23:34 43.10890 -80.79407 2024 ft 81 kts 91°
2026-04-20 23:35 43.10852 -80.78655 2066 ft 81 kts 81°
2026-04-20 23:35 43.11403 -80.77652 1940 ft 76 kts
2026-04-20 23:35 43.11892 -80.77584 1792 ft 67 kts 358°
2026-04-20 23:36 43.12347 -80.77564 1616 ft 62 kts 356°
2026-04-20 23:36 43.12662 -80.77821 1436 ft 56 kts 289°
2026-04-20 23:36 43.12688 -80.78368 1294 ft 58 kts 279°
2026-04-20 23:36 43.12720 -80.78914 1169 ft 56 kts 282°
2026-04-20 23:37 43.12762 -80.79444 1054 ft 57 kts 282°
2026-04-20 23:37 43.12803 -80.79925 1021 ft 40 kts 276°
2026-04-20 23:37 43.12825 -80.80213 1027 ft 22 kts 278°
2026-04-20 23:37 43.12840 -80.80344 1030 ft 2 kts 247°
2026-04-20 23:38 43.12830 -80.80291 1028 ft 12 kts 93°
2026-04-20 23:38 43.12820 -80.80151 1025 ft 18 kts 95°
2026-04-20 23:38 43.12803 -80.79940 1022 ft 23 kts 94°
2026-04-20 23:38 43.12786 -80.79724 1019 ft 21 kts 95°
2026-04-20 23:39 43.12774 -80.79594 1022 ft 9 kts 94°
2026-04-20 23:39 43.12780 -80.79561 1022 ft 1 kts 317°
2026-04-20 23:39 43.12775 -80.79583 1022 ft 0 kts 274°
2026-04-20 23:40 43.12779 -80.79643 1021 ft 30 kts 276°
2026-04-20 23:40 43.12821 -80.80192 1105 ft 70 kts 279°
2026-04-20 23:40 43.12875 -80.80827 1382 ft 72 kts 283°
2026-04-20 23:41 43.12923 -80.81470 1735 ft 62 kts 281°
2026-04-20 23:41 43.12938 -80.82063 2001 ft 66 kts 280°
2026-04-20 23:41 43.12962 -80.82710 2235 ft 72 kts 280°
2026-04-20 23:41 43.13070 -80.83351 2549 ft 66 kts 291°
2026-04-20 23:42 43.13180 -80.83931 2852 ft 62 kts 287°
2026-04-20 23:42 43.13309 -80.84511 3108 ft 65 kts 292°
2026-04-20 23:42 43.13474 -80.85091 3364 ft 67 kts 296°
2026-04-20 23:42 43.13689 -80.85711 3447 ft 79 kts 300°
2026-04-20 23:43 43.13975 -80.86406 3465 ft 85 kts 303°
2026-04-20 23:43 43.14302 -80.87103 3478 ft 90 kts 304°
2026-04-20 23:43 43.14651 -80.87837 3470 ft 93 kts 304°
2026-04-20 23:43 43.14999 -80.88591 3495 ft 92 kts 303°
2026-04-20 23:44 43.15264 -80.89391 3495 ft 96 kts 282°
2026-04-20 23:44 43.15103 -80.90276 3540 ft 100 kts 240°
2026-04-20 23:44 43.14488 -80.90799 3513 ft 112 kts 198°
2026-04-20 23:44 43.13713 -80.90578 3471 ft 121 kts 148°
2026-04-20 23:45 43.13066 -80.89850 3474 ft 118 kts 143°
2026-04-20 23:45 43.12401 -80.89152 3395 ft 123 kts 143°
2026-04-20 23:45 43.11742 -80.88416 3382 ft 120 kts 141°
2026-04-20 23:45 43.11121 -80.87663 3344 ft 121 kts 139°
2026-04-20 23:46 43.10502 -80.86956 3420 ft 114 kts 143°
2026-04-20 23:46 43.09873 -80.86273 3442 ft 114 kts 141°
2026-04-20 23:46 43.09269 -80.85564 3465 ft 115 kts 141°
2026-04-20 23:46 43.08643 -80.84869 3487 ft 115 kts 142°
2026-04-20 23:47 43.08025 -80.84171 3515 ft 116 kts 140°
2026-04-20 23:47 43.07414 -80.83420 3547 ft 115 kts 137°
2026-04-20 23:47 43.06798 -80.82719 3568 ft 116 kts 142°
2026-04-20 23:47 43.06165 -80.82037 3629 ft 114 kts 142°
2026-04-20 23:48 43.05537 -80.81332 3566 ft 122 kts 141°
2026-04-20 23:48 43.04879 -80.80618 3486 ft 122 kts 144°
2026-04-20 23:48 43.04160 -80.79947 3292 ft 126 kts 151°
2026-04-20 23:48 43.03402 -80.79488 3316 ft 112 kts 163°
2026-04-20 23:49 43.02667 -80.79186 3346 ft 107 kts 165°
2026-04-20 23:49 43.01974 -80.78854 3385 ft 105 kts 162°
2026-04-20 23:49 43.01285 -80.78519 3426 ft 106 kts 165°
2026-04-20 23:49 43.00586 -80.78210 3494 ft 104 kts 165°
2026-04-20 23:50 42.99867 -80.77917 3509 ft 108 kts 167°
2026-04-20 23:50 42.99143 -80.77620 3533 ft 109 kts 167°
2026-04-20 23:50 42.98420 -80.77331 3473 ft 106 kts 169°
2026-04-20 23:50 42.97713 -80.77022 3215 ft 109 kts 165°
2026-04-20 23:51 42.96994 -80.76678 2963 ft 108 kts 163°
2026-04-20 23:51 42.96290 -80.76331 2725 ft 108 kts 166°
2026-04-20 23:51 42.95578 -80.76039 2508 ft 104 kts 167°
2026-04-20 23:51 42.94899 -80.75776 2465 ft 101 kts 168°
2026-04-20 23:52 42.94201 -80.75611 2413 ft 101 kts 179°
2026-04-20 23:52 42.93520 -80.75519 2383 ft 99 kts 179°
2026-04-20 23:52 42.92833 -80.75415 2230 ft 100 kts 178°
2026-04-20 23:52 42.92129 -80.75236 1963 ft 102 kts 173°
2026-04-20 23:53 42.91520 -80.74856 1900 ft 91 kts 134°
2026-04-20 23:53 42.91345 -80.74102 1863 ft 83 kts 70°
2026-04-20 23:53 42.91483 -80.73334 1854 ft 78 kts 66°
2026-04-20 23:53 42.91631 -80.72623 1876 ft 75 kts 65°
2026-04-20 23:54 42.91777 -80.71936 1901 ft 76 kts 66°
2026-04-20 23:54 42.92071 -80.71402 1841 ft 68 kts 16°
2026-04-20 23:54 42.92518 -80.71424 1706 ft 67 kts 335°
2026-04-20 23:54 42.92926 -80.71636 1626 ft 60 kts 334°
2026-04-20 23:55 42.93274 -80.71937 1544 ft 59 kts 300°
2026-04-20 23:55 42.93257 -80.72502 1369 ft 65 kts 249°
2026-04-20 23:55 42.93076 -80.73051 1195 ft 62 kts 252°
2026-04-20 23:55 42.92905 -80.73574 1102 ft 59 kts 252°
2026-04-20 23:56 42.92742 -80.74084 957 ft 59 kts 251°
2026-04-20 23:56 42.92594 -80.74549 887 ft 42 kts 248°
2026-04-20 23:56 42.92492 -80.74861 886 ft 31 kts 247°
2026-04-20 23:56 42.92348 -80.75314 923 ft 71 kts 250°
2026-04-20 23:57 42.92170 -80.75930 1245 ft 67 kts 257°
2026-04-20 23:57 42.92012 -80.76518 1538 ft 68 kts 255°
2026-04-20 23:57 42.91781 -80.77092 1811 ft 73 kts 245°
2026-04-20 23:57 42.91510 -80.77673 2094 ft 72 kts 247°
2026-04-20 23:58 42.91264 -80.78237 2405 ft 68 kts 247°
2026-04-20 23:58 42.91031 -80.78785 2685 ft 68 kts 245°
2026-04-20 23:58 42.90745 -80.79344 2924 ft 78 kts 225°
2026-04-20 23:58 42.90182 -80.79536 2978 ft 95 kts 179°
2026-04-20 23:59 42.89577 -80.79105 3018 ft 104 kts 135°
2026-04-20 23:59 42.89125 -80.78284 3019 ft 109 kts 123°
2026-04-20 23:59 42.88707 -80.77417 2990 ft 114 kts 121°
2026-04-20 23:59 42.88266 -80.76487 2982 ft 115 kts 123°
2026-04-21 00:00 42.87800 -80.75594 2972 ft 115 kts 126°
2026-04-21 00:00 42.87333 -80.74712 2976 ft 114 kts 123°
2026-04-21 00:00 42.86830 -80.73869 2967 ft 115 kts 141°
2026-04-21 00:00 42.86121 -80.73436 2980 ft 111 kts 176°
2026-04-21 00:01 42.85406 -80.73720 2921 ft 106 kts 226°
2026-04-21 00:01 42.84956 -80.74448 2963 ft 98 kts 237°
2026-04-21 00:01 42.84528 -80.75172 2989 ft 97 kts 238°
2026-04-21 00:01 42.84125 -80.75903 3006 ft 97 kts 240°
2026-04-21 00:02 42.83718 -80.76636 3013 ft 98 kts 238°
2026-04-21 00:02 42.83287 -80.77350 3037 ft 98 kts 236°
2026-04-21 00:02 42.82839 -80.78064 3046 ft 99 kts 237°
2026-04-21 00:02 42.82402 -80.78790 3058 ft 98 kts 239°
2026-04-21 00:03 42.81995 -80.79524 3070 ft 97 kts 242°
2026-04-21 00:03 42.81601 -80.80276 3096 ft 95 kts 241°
2026-04-21 00:03 42.81202 -80.81008 3095 ft 97 kts 240°
2026-04-21 00:03 42.80807 -80.81749 3113 ft 96 kts 241°
2026-04-21 00:04 42.80433 -80.82511 3119 ft 96 kts 245°
2026-04-21 00:04 42.80104 -80.83300 3114 ft 95 kts 249°
2026-04-21 00:04 42.79812 -80.84098 3134 ft 95 kts 248°
2026-04-21 00:04 42.79466 -80.84867 3135 ft 96 kts 244°
2026-04-21 00:05 42.79140 -80.85657 3149 ft 94 kts 252°
2026-04-21 00:05 42.78987 -80.86509 3138 ft 92 kts 272°
2026-04-21 00:05 42.79052 -80.87354 3162 ft 89 kts 286°
2026-04-21 00:05 42.79211 -80.88171 3159 ft 90 kts 287°
2026-04-21 00:06 42.79298 -80.89018 3136 ft 92 kts 279°
2026-04-21 00:06 42.79377 -80.89879 3152 ft 90 kts 281°
2026-04-21 00:06 42.79483 -80.90730 3130 ft 92 kts 284°
2026-04-21 00:06 42.79644 -80.91564 3123 ft 91 kts 291°
2026-04-21 00:07 42.79870 -80.92371 3107 ft 92 kts 289°
2026-04-21 00:07 42.79971 -80.93234 3102 ft 93 kts 275°
2026-04-21 00:07 42.79916 -80.94129 3089 ft 95 kts 263°
2026-04-21 00:07 42.79749 -80.95009 3080 ft 96 kts 260°
2026-04-21 00:08 42.79544 -80.95875 3076 ft 96 kts 257°
2026-04-21 00:08 42.79322 -80.96743 3037 ft 98 kts 257°
2026-04-21 00:08 42.79113 -80.97634 2989 ft 98 kts 259°
2026-04-21 00:08 42.78915 -80.98526 2942 ft 98 kts 259°
2026-04-21 00:09 42.78730 -80.99429 2882 ft 100 kts 261°
2026-04-21 00:09 42.78558 -81.00317 2718 ft 96 kts 262°
2026-04-21 00:09 42.78394 -81.01202 2529 ft 95 kts 259°
2026-04-21 00:09 42.78209 -81.02061 2308 ft 97 kts 256°
2026-04-21 00:10 42.77990 -81.02927 2097 ft 97 kts 257°
2026-04-21 00:10 42.77822 -81.03816 1896 ft 95 kts 261°
2026-04-21 00:10 42.77746 -81.04681 1737 ft 89 kts 265°
2026-04-21 00:10 42.77678 -81.05489 1630 ft 80 kts 265°
2026-04-21 00:11 42.77609 -81.06178 1560 ft 69 kts 268°
2026-04-21 00:11 42.77573 -81.06792 1424 ft 63 kts 270°
2026-04-21 00:11 42.77530 -81.07381 1255 ft 63 kts 267°
2026-04-21 00:11 42.77487 -81.07977 1123 ft 67 kts 268°
2026-04-21 00:12 42.77450 -81.08623 1029 ft 66 kts 268°
2026-04-21 00:12 42.77408 -81.09230 931 ft 64 kts 269°
2026-04-21 00:12 42.77373 -81.09821 832 ft 61 kts 268°
2026-04-21 00:12 42.77338 -81.10380 763 ft 53 kts 267°
2026-04-21 00:13 42.77311 -81.10808 762 ft 44 kts 264°
2026-04-21 00:13 42.77279 -81.11410 900 ft 71 kts 270°
2026-04-21 00:13 42.77261 -81.12048 1222 ft 67 kts 270°
2026-04-21 00:13 42.77152 -81.12663 1525 ft 68 kts 257°
2026-04-21 00:14 42.76988 -81.13287 1785 ft 73 kts 254°
2026-04-21 00:14 42.76858 -81.13911 2098 ft 67 kts 269°
2026-04-21 00:14 42.76850 -81.14574 2341 ft 72 kts 271°
2026-04-21 00:14 42.76830 -81.15235 2633 ft 70 kts 269°
2026-04-21 00:15 42.76791 -81.15886 2924 ft 68 kts 269°
2026-04-21 00:15 42.76731 -81.16573 2987 ft 75 kts 269°
2026-04-21 00:15 42.76667 -81.17287 3078 ft 77 kts 269°
2026-04-21 00:15 42.76643 -81.18031 3130 ft 82 kts 271°
2026-04-21 00:16 42.76689 -81.18828 3121 ft 87 kts 296°
2026-04-21 00:16 42.77179 -81.19315 3090 ft 94 kts 346°
2026-04-21 00:16 42.77835 -81.19236 3102 ft 95 kts
2026-04-21 00:16 42.78500 -81.19244 3102 ft 95 kts 350°
2026-04-21 00:17 42.79192 -81.19222 2972 ft 106 kts
2026-04-21 00:17 42.79897 -81.18927 2925 ft 105 kts 22°
2026-04-21 00:17 42.80595 -81.18896 2886 ft 101 kts 354°
2026-04-21 00:17 42.81282 -81.18881 2913 ft 97 kts 356°
2026-04-21 00:18 42.81949 -81.18892 2917 ft 96 kts 354°
2026-04-21 00:18 42.82628 -81.18922 2885 ft 98 kts 353°
2026-04-21 00:18 42.83311 -81.18937 2888 ft 96 kts 354°
2026-04-21 00:18 42.83969 -81.18958 2935 ft 92 kts 354°
2026-04-21 00:19 42.84618 -81.18969 2955 ft 92 kts 356°
2026-04-21 00:19 42.85254 -81.18942 2985 ft 92 kts 358°
2026-04-21 00:19 42.85902 -81.18865 2991 ft 95 kts
2026-04-21 00:19 42.86544 -81.18569 2998 ft 98 kts 20°
2026-04-21 00:20 42.87150 -81.18125 3019 ft 99 kts 24°
2026-04-21 00:20 42.87737 -81.17637 3048 ft 99 kts 27°
2026-04-21 00:20 42.88308 -81.17107 3078 ft 99 kts 30°
2026-04-21 00:20 42.88865 -81.16560 3094 ft 100 kts 30°
2026-04-21 00:21 42.89426 -81.15973 3108 ft 101 kts 32°
2026-04-21 00:21 42.89957 -81.15360 3143 ft 101 kts 37°
2026-04-21 00:21 42.90469 -81.14682 3136 ft 103 kts 39°
2026-04-21 00:21 42.90968 -81.13966 3137 ft 104 kts 43°
2026-04-21 00:22 42.91442 -81.13221 3142 ft 105 kts 44°
2026-04-21 00:22 42.91899 -81.12431 3083 ft 107 kts 49°
2026-04-21 00:22 42.92336 -81.11627 3036 ft 106 kts 49°
2026-04-21 00:22 42.92771 -81.10824 3001 ft 104 kts 49°
2026-04-21 00:23 42.93202 -81.10014 2958 ft 106 kts 50°
2026-04-21 00:23 42.93605 -81.09200 2979 ft 100 kts 53°
2026-04-21 00:23 42.93952 -81.08359 2935 ft 104 kts 56°
2026-04-21 00:23 42.94290 -81.07503 2963 ft 100 kts 56°
2026-04-21 00:24 42.94622 -81.06666 2954 ft 100 kts 54°
2026-04-21 00:24 42.95139 -81.06086 2930 ft 95 kts 12°
2026-04-21 00:24 42.95771 -81.06117 2896 ft 90 kts 336°
2026-04-21 00:24 42.96315 -81.06516 2833 ft 88 kts 326°
2026-04-21 00:25 42.96814 -81.07011 2684 ft 89 kts 320°